Location: Ohmer (historical)
(38.0096°N, 122.0227°W)
Time: 02:54:24
(UTC+00:00)

Cosmos 1570 Rocket - Pass Details

Date: 14 February 2026
Orbit: 760 x 783 km, 74.1° (Epoch: 13 March)

Event Time Altitude Azimuth Distance (km) Brightness Sun altitude
Exits shadow 13:30:31 31° 288° (WNW) 1,303 4.6 -18.0°
Maximum altitude 13:31:45 36° 259° (W) 1,197 4.5 -17.8°
Drops below altitude 10° 13:36:26 10° 194° (SSW) 2,285 6.3 -16.9°
Sets 13:38:57 0° 186° (S) 3,208 7.2 -16.4°
